Погода в Маланге

Индонезия     7°58′54″S   112°38′44″E
темп.,
°C
ветер,
м/с
пор.,
м/с
влажн.,
%
обл.,
%
осадки,
мм/ч
давл.,
гПа
погр.,
м
5 августа, чт
чт501:00+19ююв11946 0.1 101536
04:00+18в119345 0.0 101523
07:00+21ююв017917 0.0 1016138
10:00+28сз234811 0.0 10141392
13:00+30сз224065 0.1 10112103
16:00+23зюз128377 1.6 1013332
19:00+20св119612 3.1 101523
22:00+19юв119615 0.1 101616
6 августа, пт
пт601:00+19юв119581 0.1 101514
04:00+18в1193100 0.0 101418
07:00+21вюв018189 0.0 101587
10:00+27зсз225361 0.0 10141315
13:00+27ю015699 0.6 1012881
16:00+24зсз127363 0.8 1012142
19:00+20ссв1190100 1.4 101523
22:00+19всв1196100 0.1 101622
7 августа, сб
сб701:00+19всв11941 0.1 101413
04:00+19в11925 0.0 101414
07:00+22св00800 0.0 1015121
10:00+28з225315 0.0 10141302
13:00+30з124682 1.0 10112098
16:00+23сз138439 3.1 1012312
19:00+20ссв119728 3.6 101459
22:00+20св119824 0.1 101522
8 августа, вс
вс801:00+19вюв119731 0.1 101413
04:00+19вюв119515 0.0 101414
07:00+21ссв018717 0.0 1015113
10:00+27сз225847 0.1 10141348
13:00+27с116175 2.1 10111205
16:00+23зюз118329 2.4 1012414
19:00+20вюв009729 3.2 101420
22:00+19ююв119774 0.0 101528
9 августа, пн
пн901:00+19ююв129687 0.1 101436
04:00+18ююв129648 0.0 101453
07:00+20ююз018711 0.1 1015139
10:00+26з225822 0.0 10141185
13:00+29юз234757 0.4 10101895
16:00+25юз126659 0.5 1010821
19:00+19ююз019428 0.6 101350
22:00+18юв11937 0.0 101523